Location: Malmö
(55.6050°N, 13.0038°E)
Time: 04:37:24
(UTC+02:00)

ISS - Pass Details

Date: 06 August 2017
Orbit: 402 x 407 km, 51.6° (Epoch: 24 May)

Event Time Altitude Azimuth Distance (km) Brightness Sun altitude
Rises 22:27:46 0° 272° (W) 2,326 0.7 -9.9°
Reaches altitude 10° 22:30:54 10° 239° (WSW) 1,458 -0.9 -10.2°
Maximum altitude 22:32:11 12° 216° (SW) 1,350 -1.3 -10.3°
Drops below altitude 10° 22:33:27 10° 193° (SSW) 1,454 -1.4 -10.4°
Enters shadow 22:33:55 - 185° (S) 1,539 -1.3 -10.4°
